Time,TemperatureF,DewpointF,PressureIn,WindDirection,WindDirectionDegrees,WindSpeedMPH,WindSpeedGustMPH,Humidity,HourlyPrecipIn,Conditions,Clouds,dailyrainin,SoftwareType,DateUTC
2013-06-29 00:04:00,71.5,67.1,29.90,North,351,4.0,-999.0,86,0.00,,,0.00,PyWeather,2013-06-29 10:04:00,
2013-06-29 00:09:00,71.5,67.1,29.90,North,355,5.0,-999.0,86,0.00,,,0.00,PyWeather,2013-06-29 10:09:00,
2013-06-29 00:14:00,71.4,67.0,29.90,North,10,6.0,-999.0,86,0.00,,,0.00,PyWeather,2013-06-29 10:14:00,
2013-06-29 00:19:00,71.4,67.0,29.90,North,5,5.0,-999.0,86,0.00,,,0.00,PyWeather,2013-06-29 10:19:00,
2013-06-29 00:24:00,71.6,67.2,29.89,NNE,15,3.0,-999.0,86,0.00,,,0.00,PyWeather,2013-06-29 10:24:00,
2013-06-29 00:29:00,71.8,67.4,29.89,NNE,14,1.0,-999.0,86,0.00,,,0.00,PyWeather,2013-06-29 10:29:00,
2013-06-29 00:34:00,71.6,66.9,29.89,NE,55,1.0,-999.0,85,0.00,,,0.00,PyWeather,2013-06-29 10:34:00,
2013-06-29 00:39:00,71.6,66.9,29.89,North,11,2.0,10.0,85,0.00,,,0.00,PyWeather,2013-06-29 10:39:00,
2013-06-29 00:44:00,71.6,66.5,29.89,North,11,5.0,10.0,84,0.00,,,0.00,PyWeather,2013-06-29 10:44:00,
2013-06-29 00:49:00,71.7,66.6,29.88,NNE,28,6.0,-999.0,84,0.00,,,0.00,PyWeather,2013-06-29 10:49:00,
2013-06-29 00:54:00,71.6,66.2,29.89,ENE,67,5.0,-999.0,83,0.00,,,0.00,PyWeather,2013-06-29 10:54:00,
2013-06-29 00:59:00,71.3,65.9,29.88,ENE,67,2.0,10.0,83,0.00,,,0.00,PyWeather,2013-06-29 10:59:00,
2013-06-29 01:04:00,71.1,65.4,29.88,NNE,27,1.0,10.0,82,0.00,,,0.00,PyWeather,2013-06-29 11:04:00,
2013-06-29 01:09:00,70.8,65.4,29.88,NNE,27,3.0,-999.0,83,0.00,,,0.00,PyWeather,2013-06-29 11:09:00,
2013-06-29 01:14:00,70.5,65.1,29.88,NE,38,4.0,-999.0,83,0.00,,,0.00,PyWeather,2013-06-29 11:14:00,
2013-06-29 01:19:00,70.3,64.9,29.87,NE,35,4.0,-999.0,83,0.00,,,0.00,PyWeather,2013-06-29 11:19:00,
2013-06-29 01:24:00,70.0,64.3,29.88,NE,39,4.0,-999.0,82,0.00,,,0.00,PyWeather,2013-06-29 11:24:00,
2013-06-29 01:29:00,70.0,64.3,29.87,NNE,20,4.0,-999.0,82,0.00,,,0.00,PyWeather,2013-06-29 11:29:00,
2013-06-29 01:34:00,69.8,63.8,29.87,North,11,5.0,-999.0,81,0.00,,,0.00,PyWeather,2013-06-29 11:34:00,
2013-06-29 01:39:00,69.6,63.6,29.87,NNE,16,7.0,-999.0,81,0.00,,,0.00,PyWeather,2013-06-29 11:39:00,
2013-06-29 01:44:00,69.6,63.2,29.86,NNE,32,8.0,-999.0,80,0.00,,,0.00,PyWeather,2013-06-29 11:44:00,
2013-06-29 01:49:00,69.7,63.3,29.86,NNE,26,8.0,-999.0,80,0.00,,,0.00,PyWeather,2013-06-29 11:49:00,
2013-06-29 01:54:00,69.7,63.7,29.86,NE,40,5.0,-999.0,81,0.00,,,0.00,PyWeather,2013-06-29 11:54:00,
2013-06-29 01:59:00,69.6,63.2,29.87,SE,127,4.0,-999.0,80,0.00,,,0.00,PyWeather,2013-06-29 11:59:00,
2013-06-29 02:04:00,69.7,63.7,29.86,ESE,109,7.0,-999.0,81,0.00,,,0.00,PyWeather,2013-06-29 12:04:00,
2013-06-29 02:09:00,70.3,63.9,29.86,NE,44,9.0,15.0,80,0.00,,,0.00,PyWeather,2013-06-29 12:09:00,
2013-06-29 02:14:00,70.8,64.4,29.86,NE,38,9.0,15.0,80,0.00,,,0.00,PyWeather,2013-06-29 12:14:00,
2013-06-29 02:19:00,71.0,64.3,29.86,NE,49,9.0,-999.0,79,0.00,,,0.00,PyWeather,2013-06-29 12:19:00,
2013-06-29 02:24:00,70.9,64.5,29.86,NE,38,8.0,-999.0,80,0.00,,,0.00,PyWeather,2013-06-29 12:24:00,
2013-06-29 02:29:00,70.7,64.3,29.86,NNE,29,7.0,-999.0,80,0.00,,,0.00,PyWeather,2013-06-29 12:29:00,
2013-06-29 02:34:00,70.3,64.3,29.86,NE,42,7.0,-999.0,81,0.00,,,0.00,PyWeather,2013-06-29 12:34:00,
2013-06-29 02:39:00,70.2,64.2,29.86,NNE,30,5.0,-999.0,81,0.00,,,0.00,PyWeather,2013-06-29 12:39:00,
2013-06-29 02:44:00,69.9,64.2,29.86,NNE,24,4.0,-999.0,82,0.00,,,0.00,PyWeather,2013-06-29 12:44:00,
2013-06-29 02:49:00,69.6,64.3,29.86,NNE,26,3.0,-999.0,83,0.00,,,0.00,PyWeather,2013-06-29 12:49:00,
2013-06-29 02:54:00,69.4,64.1,29.86,NNE,26,2.0,-999.0,83,0.00,,,0.00,PyWeather,2013-06-29 12:54:00,
2013-06-29 02:59:00,69.2,64.2,29.86,NNE,26,1.0,-999.0,84,0.00,,,0.00,PyWeather,2013-06-29 12:59:00,
2013-06-29 03:04:00,68.9,63.9,29.86,NNE,26,0.0,-999.0,84,0.00,,,0.00,PyWeather,2013-06-29 13:04:00,
2013-06-29 03:09:00,68.5,63.8,29.86,NNE,26,1.0,-999.0,85,0.00,,,0.00,PyWeather,2013-06-29 13:09:00,
2013-06-29 03:14:00,68.2,63.5,29.85,NNE,26,0.0,-999.0,85,0.00,,,0.00,PyWeather,2013-06-29 13:14:00,
2013-06-29 03:19:00,67.8,63.1,29.85,NNE,26,0.0,-999.0,85,0.00,,,0.00,PyWeather,2013-06-29 13:19:00,
2013-06-29 03:24:00,67.4,63.1,29.86,NNE,26,0.0,-999.0,86,0.00,,,0.00,PyWeather,2013-06-29 13:24:00,
2013-06-29 03:29:00,67.3,63.3,29.85,NNE,26,0.0,-999.0,87,0.00,,,0.00,PyWeather,2013-06-29 13:29:00,
2013-06-29 03:34:00,67.3,63.3,29.85,NNE,26,0.0,-999.0,87,0.00,,,0.00,PyWeather,2013-06-29 13:34:00,
2013-06-29 03:39:00,67.2,63.2,29.85,NNE,27,1.0,-999.0,87,0.00,,,0.00,PyWeather,2013-06-29 13:39:00,
2013-06-29 03:44:00,67.0,63.0,29.85,NNE,26,1.0,-999.0,87,0.00,,,0.00,PyWeather,2013-06-29 13:44:00,
2013-06-29 03:49:00,67.1,63.1,29.85,NNE,26,0.0,-999.0,87,0.00,,,0.00,PyWeather,2013-06-29 13:49:00,
2013-06-29 03:54:00,66.9,62.9,29.85,NNE,26,1.0,-999.0,87,0.00,,,0.00,PyWeather,2013-06-29 13:54:00,
2013-06-29 03:59:00,66.7,62.7,29.85,NNE,26,2.0,-999.0,87,0.00,,,0.00,PyWeather,2013-06-29 13:59:00,
2013-06-29 04:04:00,66.6,62.6,29.85,NNE,26,0.0,-999.0,87,0.00,,,0.00,PyWeather,2013-06-29 14:04:00,
2013-06-29 04:09:00,66.4,62.4,29.85,NNE,26,0.0,-999.0,87,0.00,,,0.00,PyWeather,2013-06-29 14:09:00,
2013-06-29 04:14:00,66.4,62.1,29.85,NNE,26,0.0,-999.0,86,0.00,,,0.00,PyWeather,2013-06-29 14:14:00,
2013-06-29 04:19:00,66.4,61.8,29.85,NNE,30,1.0,-999.0,85,0.00,,,0.00,PyWeather,2013-06-29 14:19:00,
2013-06-29 04:24:00,66.7,61.7,29.84,NE,51,5.0,-999.0,84,0.00,,,0.00,PyWeather,2013-06-29 14:24:00,
2013-06-29 04:29:00,66.8,61.5,29.85,NE,53,8.0,-999.0,83,0.00,,,0.00,PyWeather,2013-06-29 14:29:00,
2013-06-29 04:34:00,66.8,61.5,29.85,NE,49,7.0,-999.0,83,0.00,,,0.00,PyWeather,2013-06-29 14:34:00,
2013-06-29 04:39:00,66.9,61.9,29.85,NE,50,3.0,11.0,84,0.00,,,0.00,PyWeather,2013-06-29 14:39:00,
2013-06-29 04:44:00,67.4,62.4,29.85,ENE,69,2.0,11.0,84,0.00,,,0.00,PyWeather,2013-06-29 14:44:00,
2013-06-29 04:49:00,67.6,62.3,29.85,ENE,78,2.0,-999.0,83,0.00,,,0.00,PyWeather,2013-06-29 14:49:00,
2013-06-29 04:54:00,67.9,62.6,29.85,NNE,26,1.0,-999.0,83,0.00,,,0.00,PyWeather,2013-06-29 14:54:00,
2013-06-29 04:59:00,69.3,64.0,29.85,NNE,30,4.0,11.0,83,0.00,,,0.00,PyWeather,2013-06-29 14:59:00,
2013-06-29 05:04:00,70.2,63.5,29.85,NE,40,8.0,11.0,79,0.00,,,0.00,PyWeather,2013-06-29 15:04:00,
2013-06-29 05:09:00,70.2,62.8,29.85,NE,34,10.0,17.0,77,0.00,,,0.00,PyWeather,2013-06-29 15:09:00,
2013-06-29 05:14:00,70.2,63.5,29.85,NNE,17,9.0,17.0,79,0.00,,,0.00,PyWeather,2013-06-29 15:14:00,
2013-06-29 05:19:00,70.6,64.2,29.86,NNE,32,6.0,-999.0,80,0.00,,,0.00,PyWeather,2013-06-29 15:19:00,
2013-06-29 05:24:00,70.8,64.1,29.86,NE,35,5.0,-999.0,79,0.00,,,0.00,PyWeather,2013-06-29 15:24:00,
2013-06-29 05:29:00,70.6,63.9,29.86,NE,44,5.0,-999.0,79,0.00,,,0.00,PyWeather,2013-06-29 15:29:00,
2013-06-29 05:34:00,70.1,63.4,29.87,NE,38,5.0,-999.0,79,0.00,,,0.00,PyWeather,2013-06-29 15:34:00,
2013-06-29 05:39:00,70.1,63.4,29.87,NE,38,3.0,-999.0,79,0.00,,,0.00,PyWeather,2013-06-29 15:39:00,
2013-06-29 05:44:00,70.1,63.7,29.87,NNE,31,1.0,-999.0,80,0.00,,,0.00,PyWeather,2013-06-29 15:44:00,
2013-06-29 05:49:00,70.2,64.2,29.87,NNE,13,2.0,9.0,81,0.00,,,0.00,PyWeather,2013-06-29 15:49:00,
2013-06-29 05:54:00,70.3,64.3,29.87,North,5,5.0,9.0,81,0.00,,,0.00,PyWeather,2013-06-29 15:54:00,
2013-06-29 05:59:00,70.0,64.0,29.87,North,10,4.0,-999.0,81,0.00,,,0.00,PyWeather,2013-06-29 15:59:00,
2013-06-29 06:04:00,69.9,63.9,29.87,NNW,346,3.0,-999.0,81,0.00,,,0.00,PyWeather,2013-06-29 16:04:00,
2013-06-29 06:10:00,70.2,63.8,29.87,North,9,4.0,-999.0,80,0.00,,,0.00,PyWeather,2013-06-29 16:10:00,
2013-06-29 06:15:00,71.0,64.6,29.87,NNW,336,7.0,-999.0,80,0.00,,,0.00,PyWeather,2013-06-29 16:15:00,
2013-06-29 06:20:00,71.7,64.9,29.87,NNW,344,7.0,-999.0,79,0.00,,,0.00,PyWeather,2013-06-29 16:20:00,
2013-06-29 06:25:00,72.2,65.1,29.87,North,355,5.0,-999.0,78,0.00,,,0.00,PyWeather,2013-06-29 16:25:00,
2013-06-29 06:30:00,72.4,64.9,29.87,NNE,28,4.0,12.0,77,0.00,,,0.00,PyWeather,2013-06-29 16:30:00,
2013-06-29 06:35:00,71.2,63.0,29.86,NNE,27,6.0,12.0,75,0.00,,,0.00,PyWeather,2013-06-29 16:35:00,
2013-06-29 06:40:00,69.9,62.8,29.87,ENE,61,8.0,-999.0,78,0.00,,,0.00,PyWeather,2013-06-29 16:40:00,
2013-06-29 06:45:00,69.7,63.0,29.87,NNE,28,6.0,-999.0,79,0.00,,,0.00,PyWeather,2013-06-29 16:45:00,
2013-06-29 06:50:00,69.5,63.1,29.88,NNE,18,3.0,13.0,80,0.00,,,0.00,PyWeather,2013-06-29 16:50:00,
2013-06-29 06:55:00,70.0,63.6,29.88,North,9,3.0,13.0,80,0.00,,,0.00,PyWeather,2013-06-29 16:55:00,
2013-06-29 07:00:00,70.5,63.4,29.88,North,5,4.0,-999.0,78,0.00,,,0.00,PyWeather,2013-06-29 17:00:00,
2013-06-29 07:05:00,71.1,63.6,29.88,North,355,5.0,-999.0,77,0.00,,,0.00,PyWeather,2013-06-29 17:05:00,
2013-06-29 07:10:00,71.8,64.0,29.88,NNE,22,4.0,-999.0,76,0.00,,,0.00,PyWeather,2013-06-29 17:10:00,
2013-06-29 07:15:00,72.5,63.9,29.88,North,360,1.0,-999.0,74,0.00,,,0.00,PyWeather,2013-06-29 17:15:00,
2013-06-29 07:20:00,72.9,63.9,29.88,North,360,0.0,-999.0,73,0.00,,,0.00,PyWeather,2013-06-29 17:20:00,
2013-06-29 07:25:00,73.2,64.2,29.88,North,360,0.0,-999.0,73,0.00,,,0.00,PyWeather,2013-06-29 17:25:00,
2013-06-29 07:30:00,73.4,64.4,29.89,North,360,0.0,-999.0,73,0.00,,,0.00,PyWeather,2013-06-29 17:30:00,
2013-06-29 07:35:00,73.9,64.9,29.89,North,360,0.0,-999.0,73,0.00,,,0.00,PyWeather,2013-06-29 17:35:00,
2013-06-29 07:40:00,74.8,65.4,29.89,ENE,62,0.0,-999.0,72,0.00,,,0.00,PyWeather,2013-06-29 17:40:00,
2013-06-29 08:55:00,78.4,65.5,29.89,NW,304,5.0,-999.0,64,0.00,,,0.00,PyWeather,2013-06-29 18:55:00,
2013-06-29 10:13:00,80.7,64.3,29.88,NNW,329,6.0,-999.0,57,0.00,,,0.00,PyWeather,2013-06-29 20:13:00,
2013-06-29 13:00:00,85.7,67.4,29.85,North,5,8.0,-999.0,54,0.00,,,0.00,PyWeather,2013-06-29 23:00:00,
2013-06-29 13:08:00,84.9,67.7,29.85,NE,43,11.0,-999.0,56,0.00,,,0.00,PyWeather,2013-06-29 23:08:00,
2013-06-29 13:13:00,84.1,68.0,29.85,NE,52,12.0,-999.0,58,0.00,,,0.00,PyWeather,2013-06-29 23:13:00,
2013-06-29 13:18:00,84.1,68.0,29.85,NE,51,10.0,18.0,58,0.00,,,0.00,PyWeather,2013-06-29 23:18:00,
2013-06-29 13:23:00,84.3,68.7,29.85,ENE,68,11.0,18.0,59,0.00,,,0.00,PyWeather,2013-06-29 23:23:00,
2013-06-29 13:28:00,83.6,68.5,29.85,East,95,12.0,20.0,60,0.00,,,0.00,PyWeather,2013-06-29 23:28:00,
2013-06-29 13:33:00,83.3,68.2,29.85,ENE,60,11.0,20.0,60,0.00,,,0.00,PyWeather,2013-06-29 23:33:00,
2013-06-29 13:38:00,82.7,68.6,29.85,ENE,64,11.0,19.0,62,0.00,,,0.00,PyWeather,2013-06-29 23:38:00,
2013-06-29 13:43:00,83.2,69.1,29.85,NNE,23,11.0,19.0,62,0.00,,,0.00,PyWeather,2013-06-29 23:43:00,
2013-06-29 13:48:00,83.7,68.6,29.85,NNE,33,11.0,17.0,60,0.00,,,0.00,PyWeather,2013-06-29 23:48:00,
2013-06-29 13:53:00,84.7,69.5,29.85,NE,50,10.0,17.0,60,0.00,,,0.00,PyWeather,2013-06-29 23:53:00,
2013-06-29 13:58:00,84.7,71.0,29.85,NE,36,11.0,22.0,63,0.00,,,0.00,PyWeather,2013-06-29 23:58:00,
2013-06-29 14:03:00,83.2,70.9,29.85,NE,47,14.0,22.0,66,0.00,,,0.00,PyWeather,2013-06-30 00:03:00,
2013-06-29 14:08:00,82.1,70.7,29.85,NE,38,16.0,25.0,68,0.00,,,0.00,PyWeather,2013-06-30 00:08:00,
2013-06-29 14:13:00,82.0,70.6,29.84,NNE,17,16.0,25.0,68,0.00,,,0.00,PyWeather,2013-06-30 00:13:00,
2013-06-29 14:18:00,81.8,69.6,29.85,NE,56,16.0,23.0,66,0.00,,,0.00,PyWeather,2013-06-30 00:18:00,
2013-06-29 14:23:00,81.7,70.4,29.85,NE,46,16.0,23.0,68,0.00,,,0.00,PyWeather,2013-06-30 00:23:00,
2013-06-29 14:28:00,81.7,69.9,29.85,NE,49,15.0,24.0,67,0.00,,,0.00,PyWeather,2013-06-30 00:28:00,
2013-06-29 14:33:00,81.4,70.5,29.85,NE,40,15.0,24.0,69,0.00,,,0.00,PyWeather,2013-06-30 00:33:00,
2013-06-29 14:38:00,81.0,70.9,29.85,NNE,31,15.0,23.0,71,0.00,,,0.00,PyWeather,2013-06-30 00:38:00,
2013-06-29 14:43:00,81.7,70.8,29.85,North,355,14.0,23.0,69,0.00,,,0.00,PyWeather,2013-06-30 00:43:00,
2013-06-29 14:48:00,81.8,70.9,29.84,NE,35,12.0,20.0,69,0.00,,,0.00,PyWeather,2013-06-30 00:48:00,
2013-06-29 14:53:00,82.2,70.8,29.84,NNE,24,13.0,20.0,68,0.00,,,0.00,PyWeather,2013-06-30 00:53:00,
2013-06-29 14:58:00,82.0,70.2,29.84,NE,41,14.0,23.0,67,0.00,,,0.00,PyWeather,2013-06-30 00:58:00,
2013-06-29 15:03:00,82.4,70.6,29.84,NE,36,13.0,23.0,67,0.00,,,0.00,PyWeather,2013-06-30 01:03:00,
2013-06-29 15:08:00,82.9,70.6,29.84,NNE,18,12.0,21.0,66,0.00,,,0.00,PyWeather,2013-06-30 01:08:00,
2013-06-29 15:13:00,82.4,70.6,29.84,NE,39,14.0,21.0,67,0.00,,,0.00,PyWeather,2013-06-30 01:13:00,
2013-06-29 15:18:00,82.5,70.3,29.83,NE,38,13.0,21.0,66,0.00,,,0.00,PyWeather,2013-06-30 01:18:00,
2013-06-29 15:23:00,83.0,70.3,29.83,NE,53,13.0,21.0,65,0.00,,,0.00,PyWeather,2013-06-30 01:23:00,
2013-06-29 15:28:00,82.9,70.2,29.83,NNE,29,13.0,23.0,65,0.00,,,0.00,PyWeather,2013-06-30 01:28:00,
2013-06-29 15:33:00,82.6,70.3,29.83,NE,48,14.0,23.0,66,0.00,,,0.00,PyWeather,2013-06-30 01:33:00,
2013-06-29 15:38:00,82.1,70.3,29.83,NE,42,15.0,22.0,67,0.00,,,0.00,PyWeather,2013-06-30 01:38:00,
2013-06-29 15:43:00,82.4,71.0,29.83,NNE,31,14.0,22.0,68,0.00,,,0.00,PyWeather,2013-06-30 01:43:00,
2013-06-29 15:48:00,82.8,71.0,29.82,North,360,14.0,21.0,67,0.00,,,0.00,PyWeather,2013-06-30 01:48:00,
2013-06-29 15:53:00,82.8,70.5,29.82,NNE,33,15.0,21.0,66,0.00,,,0.00,PyWeather,2013-06-30 01:53:00,
2013-06-29 15:58:00,82.7,70.4,29.83,NE,42,15.0,26.0,66,0.00,,,0.00,PyWeather,2013-06-30 01:58:00,
2013-06-29 16:03:00,82.0,70.2,29.83,NE,40,16.0,26.0,67,0.00,,,0.00,PyWeather,2013-06-30 02:03:00,
2013-06-29 16:08:00,81.5,70.2,29.83,ENE,63,16.0,25.0,68,0.00,,,0.00,PyWeather,2013-06-30 02:08:00,
2013-06-29 16:13:00,81.2,70.3,29.83,NE,39,15.0,25.0,69,0.00,,,0.00,PyWeather,2013-06-30 02:13:00,
2013-06-29 16:18:00,81.3,70.0,29.83,ENE,61,14.0,22.0,68,0.00,,,0.00,PyWeather,2013-06-30 02:18:00,
2013-06-29 16:23:00,80.9,69.6,29.83,North,360,15.0,22.0,68,0.00,,,0.00,PyWeather,2013-06-30 02:23:00,
2013-06-29 16:28:00,80.8,69.9,29.83,NE,51,15.0,25.0,69,0.00,,,0.00,PyWeather,2013-06-30 02:28:00,
2013-06-29 16:33:00,80.7,70.2,29.83,NNE,26,14.0,25.0,70,0.00,,,0.00,PyWeather,2013-06-30 02:33:00,
2013-06-29 16:34:00,80.7,70.2,29.83,NNE,30,15.0,25.0,70,0.00,,,0.00,PyWeather,2013-06-30 02:34:00,
2013-06-29 16:39:00,80.6,69.7,29.83,NE,39,14.0,24.0,69,0.00,,,0.00,PyWeather,2013-06-30 02:39:00,
2013-06-29 16:44:00,80.5,70.0,29.83,NE,53,14.0,24.0,70,0.00,,,0.00,PyWeather,2013-06-30 02:44:00,
2013-06-29 16:49:00,80.7,69.8,29.83,NE,49,15.0,23.0,69,0.00,,,0.00,PyWeather,2013-06-30 02:49:00,
2013-06-29 16:54:00,81.0,69.7,29.83,NNE,29,16.0,23.0,68,0.00,,,0.00,PyWeather,2013-06-30 02:54:00,
2013-06-29 16:59:00,81.3,69.5,29.83,NE,34,14.0,25.0,67,0.00,,,0.00,PyWeather,2013-06-30 02:59:00,
2013-06-29 17:04:00,81.6,69.4,29.83,NE,43,13.0,25.0,66,0.00,,,0.00,PyWeather,2013-06-30 03:04:00,
2013-06-29 17:09:00,81.7,69.0,29.82,NE,36,13.0,24.0,65,0.00,,,0.00,PyWeather,2013-06-30 03:09:00,
2013-06-29 17:14:00,81.9,68.8,29.83,NNE,32,12.0,24.0,64,0.00,,,0.00,PyWeather,2013-06-30 03:14:00,
2013-06-29 17:19:00,82.1,69.0,29.83,NNE,24,12.0,20.0,64,0.00,,,0.00,PyWeather,2013-06-30 03:19:00,
2013-06-29 17:24:00,82.3,68.7,29.83,NE,36,10.0,20.0,63,0.00,,,0.00,PyWeather,2013-06-30 03:24:00,
2013-06-29 17:29:00,82.5,68.9,29.83,NE,40,9.0,17.0,63,0.00,,,0.00,PyWeather,2013-06-30 03:29:00,
2013-06-29 17:34:00,82.1,68.5,29.83,NNE,27,10.0,17.0,63,0.00,,,0.00,PyWeather,2013-06-30 03:34:00,
2013-06-29 17:39:00,81.6,68.5,29.83,NE,38,11.0,20.0,64,0.00,,,0.00,PyWeather,2013-06-30 03:39:00,
2013-06-29 17:44:00,82.0,68.9,29.83,North,355,9.0,20.0,64,0.00,,,0.00,PyWeather,2013-06-30 03:44:00,
2013-06-29 17:49:00,81.0,68.8,29.84,NW,321,11.0,16.0,66,0.00,,,0.00,PyWeather,2013-06-30 03:49:00,
2013-06-29 17:54:00,79.0,68.6,29.84,NW,315,16.0,16.0,70,0.00,,,0.00,PyWeather,2013-06-30 03:54:00,
2013-06-29 17:59:00,78.1,68.5,29.84,NW,326,19.0,26.0,72,0.00,,,0.00,PyWeather,2013-06-30 03:59:00,
2013-06-29 18:01:00,78.1,68.5,29.84,NW,315,19.0,26.0,72,0.00,,,0.00,PyWeather,2013-06-30 04:01:00,
2013-06-29 18:02:00,78.1,68.5,29.84,NNW,335,18.0,26.0,72,0.00,,,0.00,PyWeather,2013-06-30 04:02:00,
2013-06-29 18:07:00,77.9,68.3,29.84,NW,323,18.0,26.0,72,0.00,,,0.00,PyWeather,2013-06-30 04:07:00,
2013-06-29 18:12:00,77.5,68.3,29.84,NW,323,17.0,-999.0,73,0.00,,,0.00,PyWeather,2013-06-30 04:12:00,
2013-06-29 18:17:00,77.2,68.4,29.84,NNW,331,16.0,-999.0,74,0.00,,,0.00,PyWeather,2013-06-30 04:17:00,
2013-06-29 18:22:00,77.0,68.3,29.85,NNW,330,16.0,23.0,74,0.00,,,0.00,PyWeather,2013-06-30 04:22:00,
2013-06-29 18:27:00,76.7,68.0,29.85,NW,311,16.0,23.0,74,0.00,,,0.00,PyWeather,2013-06-30 04:27:00,
2013-06-29 18:32:00,76.5,67.8,29.85,NW,314,18.0,23.0,74,0.00,,,0.00,PyWeather,2013-06-30 04:32:00,
2013-06-29 18:37:00,76.5,68.1,29.85,NNW,331,18.0,23.0,75,0.00,,,0.00,PyWeather,2013-06-30 04:37:00,
2013-06-29 18:42:00,76.4,68.1,29.86,North,360,18.0,28.0,75,0.00,,,0.00,PyWeather,2013-06-30 04:42:00,
2013-06-29 18:47:00,76.3,68.0,29.86,NNW,329,18.0,28.0,75,0.00,,,0.00,PyWeather,2013-06-30 04:47:00,
2013-06-29 18:52:00,76.1,67.8,29.87,NNW,333,18.0,26.0,75,0.00,,,0.00,PyWeather,2013-06-30 04:52:00,
2013-06-29 18:57:00,76.2,67.9,29.86,NNW,338,16.0,26.0,75,0.00,,,0.00,PyWeather,2013-06-30 04:57:00,
2013-06-29 19:02:00,76.5,67.8,29.87,North,355,17.0,-999.0,74,0.00,,,0.00,PyWeather,2013-06-30 05:02:00,
2013-06-29 19:07:00,76.6,67.9,29.87,NNW,348,18.0,26.0,74,0.00,,,0.00,PyWeather,2013-06-30 05:07:00,
2013-06-29 19:12:00,76.3,67.6,29.87,North,9,18.0,26.0,74,0.00,,,0.00,PyWeather,2013-06-30 05:12:00,
2013-06-29 19:17:00,76.1,67.8,29.88,NNW,347,18.0,28.0,75,0.00,,,0.00,PyWeather,2013-06-30 05:17:00,
2013-06-29 19:22:00,75.8,67.1,29.88,NNW,334,17.0,28.0,74,0.00,,,0.00,PyWeather,2013-06-30 05:22:00,
2013-06-29 19:27:00,75.6,66.9,29.88,NNW,342,16.0,-999.0,74,0.00,,,0.00,PyWeather,2013-06-30 05:27:00,
2013-06-29 19:32:00,75.7,67.7,29.88,NNW,330,16.0,-999.0,76,0.00,,,0.00,PyWeather,2013-06-30 05:32:00,
2013-06-29 19:37:00,75.3,68.1,29.88,NNW,332,16.0,-999.0,78,0.00,,,0.00,PyWeather,2013-06-30 05:37:00,
2013-06-29 19:43:00,74.8,68.3,29.88,North,355,16.0,-999.0,80,0.00,,,0.00,PyWeather,2013-06-30 05:43:00,
2013-06-29 19:48:00,74.3,68.5,29.88,NNW,333,15.0,22.0,82,0.00,,,0.00,PyWeather,2013-06-30 05:48:00,
2013-06-29 19:53:00,73.9,68.8,29.89,NNW,343,15.0,22.0,84,0.00,,,0.00,PyWeather,2013-06-30 05:53:00,
2013-06-29 19:58:00,73.6,68.5,29.89,NNW,338,16.0,-999.0,84,0.00,,,0.00,PyWeather,2013-06-30 05:58:00,
2013-06-29 20:03:00,73.6,68.8,29.89,North,355,15.0,-999.0,85,0.00,,,0.00,PyWeather,2013-06-30 06:03:00,
2013-06-29 20:08:00,73.5,68.7,29.89,NNW,341,12.0,-999.0,85,0.00,,,0.00,PyWeather,2013-06-30 06:08:00,
2013-06-29 20:13:00,73.3,68.6,29.89,NNW,337,11.0,-999.0,85,0.00,,,0.00,PyWeather,2013-06-30 06:13:00,
2013-06-29 20:18:00,73.3,68.6,29.90,North,350,7.0,15.0,85,0.00,,,0.00,PyWeather,2013-06-30 06:18:00,
2013-06-29 20:23:00,73.7,68.6,29.90,NNW,336,3.0,15.0,84,0.00,,,0.00,PyWeather,2013-06-30 06:23:00,
2013-06-29 20:28:00,74.0,68.6,29.90,North,349,3.0,-999.0,83,0.00,,,0.00,PyWeather,2013-06-30 06:28:00,
2013-06-29 20:33:00,74.1,68.3,29.91,NNE,20,2.0,-999.0,82,0.00,,,0.00,PyWeather,2013-06-30 06:33:00,
2013-06-29 20:38:00,74.5,68.4,29.91,North,10,1.0,-999.0,81,0.00,,,0.00,PyWeather,2013-06-30 06:38:00,
2013-06-29 20:43:00,74.8,68.3,29.91,NNE,18,3.0,-999.0,80,0.00,,,0.00,PyWeather,2013-06-30 06:43:00,
2013-06-29 20:48:00,74.8,68.0,29.91,NNE,28,4.0,-999.0,79,0.00,,,0.00,PyWeather,2013-06-30 06:48:00,
2013-06-29 20:53:00,74.8,68.0,29.91,NE,44,3.0,-999.0,79,0.00,,,0.00,PyWeather,2013-06-30 06:53:00,
2013-06-29 20:58:00,74.8,68.0,29.91,NE,51,2.0,-999.0,79,0.00,,,0.00,PyWeather,2013-06-30 06:58:00,
2013-06-29 21:03:00,74.7,67.9,29.91,NE,51,1.0,-999.0,79,0.00,,,0.00,PyWeather,2013-06-30 07:03:00,
2013-06-29 21:08:00,74.6,67.8,29.91,NE,51,1.0,-999.0,79,0.00,,,0.00,PyWeather,2013-06-30 07:08:00,
2013-06-29 21:13:00,74.6,68.1,29.91,NW,308,0.0,-999.0,80,0.00,,,0.00,PyWeather,2013-06-30 07:13:00,
2013-06-29 21:18:00,74.1,67.6,29.92,NNW,329,2.0,11.0,80,0.00,,,0.00,PyWeather,2013-06-30 07:18:00,
2013-06-29 21:23:00,73.5,67.4,29.92,NNW,346,7.0,11.0,81,0.00,,,0.00,PyWeather,2013-06-30 07:23:00,
2013-06-29 21:28:00,73.5,67.4,29.92,NNW,344,6.0,15.0,81,0.00,,,0.00,PyWeather,2013-06-30 07:28:00,
2013-06-29 21:33:00,73.4,67.3,29.92,North,355,5.0,15.0,81,0.00,,,0.00,PyWeather,2013-06-30 07:33:00,
2013-06-29 21:38:00,73.5,67.4,29.92,North,360,5.0,-999.0,81,0.00,,,0.00,PyWeather,2013-06-30 07:38:00,
2013-06-29 21:43:00,73.6,67.5,29.92,North,5,2.0,-999.0,81,0.00,,,0.00,PyWeather,2013-06-30 07:43:00,
2013-06-29 21:48:00,73.5,67.4,29.92,NNE,24,2.0,-999.0,81,0.00,,,0.00,PyWeather,2013-06-30 07:48:00,
2013-06-29 21:53:00,73.4,67.3,29.93,NE,40,3.0,-999.0,81,0.00,,,0.00,PyWeather,2013-06-30 07:53:00,
2013-06-29 21:58:00,73.3,67.5,29.93,NE,42,4.0,-999.0,82,0.00,,,0.00,PyWeather,2013-06-30 07:58:00,
2013-06-29 22:03:00,73.2,67.8,29.93,ENE,59,3.0,-999.0,83,0.00,,,0.00,PyWeather,2013-06-30 08:03:00,
2013-06-29 22:08:00,73.1,67.7,29.93,ENE,63,1.0,-999.0,83,0.00,,,0.00,PyWeather,2013-06-30 08:08:00,
2013-06-29 22:13:00,73.2,68.1,29.93,ENE,70,2.0,-999.0,84,0.00,,,0.00,PyWeather,2013-06-30 08:13:00,
2013-06-29 22:18:00,73.6,68.2,29.93,ENE,72,2.0,-999.0,83,0.00,,,0.00,PyWeather,2013-06-30 08:18:00,
2013-06-29 22:23:00,73.9,68.5,29.93,East,79,1.0,-999.0,83,0.00,,,0.00,PyWeather,2013-06-30 08:23:00,
2013-06-29 22:28:00,74.1,68.3,29.93,East,80,1.0,-999.0,82,0.00,,,0.00,PyWeather,2013-06-30 08:28:00,
2013-06-29 22:33:00,74.2,68.4,29.93,NE,55,0.0,-999.0,82,0.00,,,0.00,PyWeather,2013-06-30 08:33:00,
2013-06-29 22:38:00,73.9,67.8,29.93,NE,55,0.0,-999.0,81,0.00,,,0.00,PyWeather,2013-06-30 08:38:00,
2013-06-29 22:43:00,73.5,67.4,29.93,NE,55,0.0,-999.0,81,0.00,,,0.00,PyWeather,2013-06-30 08:43:00,
2013-06-29 22:48:00,73.1,67.0,29.94,NNW,342,1.0,-999.0,81,0.00,,,0.00,PyWeather,2013-06-30 08:48:00,
2013-06-29 22:53:00,73.1,66.7,29.94,NNW,343,1.0,-999.0,80,0.00,,,0.00,PyWeather,2013-06-30 08:53:00,
2013-06-29 22:58:00,73.4,66.9,29.93,NNW,338,2.0,9.0,80,0.00,,,0.00,PyWeather,2013-06-30 08:58:00,
2013-06-29 23:03:00,73.5,66.7,29.93,NNE,25,3.0,9.0,79,0.00,,,0.00,PyWeather,2013-06-30 09:03:00,
2013-06-29 23:08:00,73.4,66.6,29.93,North,355,1.0,-999.0,79,0.00,,,0.00,PyWeather,2013-06-30 09:08:00,
2013-06-29 23:13:00,73.5,67.0,29.93,North,10,2.0,-999.0,80,0.00,,,0.00,PyWeather,2013-06-30 09:13:00,
2013-06-29 23:18:00,73.7,67.6,29.93,North,9,4.0,-999.0,81,0.00,,,0.00,PyWeather,2013-06-30 09:18:00,
2013-06-29 23:23:00,74.1,68.3,29.93,NNE,17,5.0,-999.0,82,0.00,,,0.00,PyWeather,2013-06-30 09:23:00,
2013-06-29 23:28:00,74.5,68.4,29.93,NNE,22,6.0,14.0,81,0.00,,,0.00,PyWeather,2013-06-30 09:28:00,
2013-06-29 23:33:00,74.3,68.2,29.93,North,5,5.0,14.0,81,0.00,,,0.00,PyWeather,2013-06-30 09:33:00,
2013-06-29 23:38:00,74.0,67.9,29.93,North,11,4.0,-999.0,81,0.00,,,0.00,PyWeather,2013-06-30 09:38:00,
2013-06-29 23:43:00,73.5,67.4,29.93,North,10,3.0,-999.0,81,0.00,,,0.00,PyWeather,2013-06-30 09:43:00,
2013-06-29 23:48:00,73.1,67.3,29.93,North,10,1.0,-999.0,82,0.00,,,0.00,PyWeather,2013-06-30 09:48:00,
2013-06-29 23:53:00,72.8,67.1,29.93,NNW,337,0.0,-999.0,82,0.00,,,0.00,PyWeather,2013-06-30 09:53:00,
2013-06-29 23:58:00,72.6,66.9,29.93,NNW,343,3.0,-999.0,82,0.00,,,0.00,PyWeather,2013-06-30 09:58:00,